Location: Newark
(48.0167°N, 2.6667°E)
Time: 14:37:02
(UTC+00:00)

Envisat - Visible Passes

Search period start: 29 September 2020 00:00
Search period end: 09 October 2020 00:00
Orbit: 764 x 766 km, 98.1° (Epoch: 29 September)

Date Brightness Start Highest point End Pass type
(mag) Time Alt. Az. Time Alt. Az. Time Alt. Az.
29 Sep 6.5 04:24:06 10° ENE 04:25:46 11° E 04:27:26 10° ESE visible
30 Sep 6.2 18:23:11 10° SW 18:26:22 17° W 18:29:34 10° NW visible
01 Oct 6.0 04:47:54 10° NE 04:51:34 20° E 04:55:12 10° SE visible
03 Oct 5.2 05:12:41 10° NNE 05:17:15 32° E 05:21:46 10° SSE visible
03 Oct 6.0 18:11:07 10° SW 18:14:52 20° W 18:18:38 10° NW visible
04 Oct 6.2 04:37:00 10° NE 04:40:04 16° E 04:43:06 10° SE visible
05 Oct 6.5 18:38:41 10° WSW 18:40:39 12° W 18:42:37 10° WNW visible
06 Oct 5.6 05:01:33 10° NE 05:05:47 26° E 05:10:00 10° SSE visible
06 Oct 5.7 17:59:13 10° SSW 18:03:23 25° W 18:07:35 10° NW visible
07 Oct 6.4 04:26:23 10° ENE 04:28:32 13° E 04:30:41 10° ESE visible
08 Oct 4.5 05:26:34 10° NNE 05:31:25 43° E 05:36:13 10° S visible
08 Oct 6.3 18:26:11 10° WSW 18:29:07 15° W 18:32:04 10° NW visible
